FW3713 Weather Reports


time (UTC)temp
F
wind
direction
speed
knots
gust
knots
rain 1hr
in
rain 24hr
in
rain mn
in
humidity
%
barometer
mb
20210518192325 55 73 0.0 2.6 0.00 0.00 0.00 67 1026.6
20210518191818 55 202 0.0 0.9 0.00 0.00 0.00 68 1026.8
20210518191313 55 202 0.9 0.9 0.00 0.00 0.00 67 1026.8
20210518190807 55 202 0.9 1.7 0.00 0.00 0.00 66 1026.9
20210518190300 54 202 0.0 1.7 0.00 0.00 0.00 67 1026.9
20210518185754 54 237 0.0 1.7 0.00 0.00 0.00 67 1026.9
20210518185250 54 239 0.9 2.6 0.00 0.00 0.00 66 1026.9
20210518184743 54 175 1.7 5.2 0.00 0.00 0.00 65 1027.1
20210518184237 54 277 1.7 5.2 0.00 0.00 0.00 64 1027.1
20210518183731 55 314 2.6 6.1 0.00 0.00 0.00 64 1027.2
20210518183224 55 318 3.5 7.8 0.00 0.00 0.00 62 1027.3
20210518182719 55 270 5.2 9.6 0.00 0.00 0.00 59 1027.3
20210518182213 55 249 6.1 12.2 0.00 0.00 0.00 58 1027.3
20210518181708 56 258 5.2 12.2 0.00 0.00 0.00 57 1027.3
20210518181201 56 274 5.2 9.6 0.00 0.00 0.00 56 1027.3
20210518180654 57 258 6.1 12.2 0.00 0.00 0.00 55 1027.2
20210518180149 57 279 7.0 12.2 0.00 0.00 0.00 53 1027.0
20210518175643 58 301 7.0 14.8 0.00 0.00 0.00 52 1027.0
20210518175137 58 315 6.1 14.8 0.00 0.00 0.00 54 1027.0
20210518174631 59 318 6.1 13.0 0.00 0.00 0.00 51 1026.9
20210518174124 60 311 7.0 13.0 0.00 0.00 0.00 48 1026.9
20210518173620 61 296 7.0 14.8 0.00 0.00 0.00 45 1026.9
20210518173113 62 307 4.3 14.8 0.00 0.00 0.00 42 1026.6
20210518172607 63 312 1.7 7.0 0.00 0.00 0.00 39 1026.3
20210518172101 64 328 1.7 3.5 0.00 0.00 0.00 39 1026.2
20210518171554 64 282 1.7 3.5 0.00 0.00 0.00 38 1026.2
20210518171050 64 276 1.7 3.5 0.00 0.00 0.00 38 1026.1
20210518170544 64 331 1.7 3.5 0.00 0.00 0.00 38 1025.9
20210518170035 64 245 2.6 6.1 0.00 0.00 0.00 36 1025.9
20210518165531 64 288 2.6 6.1 0.00 0.00 0.00 36 1025.9
20210518165025 65 255 1.7 6.1 0.00 0.00 0.00 35 1025.8
20210518164518 65 273 2.6 6.1 0.00 0.00 0.00 34 1025.7
20210518164013 65 281 2.6 6.1 0.00 0.00 0.00 33 1025.5
20210518163507 66 270 1.7 4.3 0.00 0.00 0.00 34 1025.4
20210518163001 66 257 0.9 2.6 0.00 0.00 0.00 36 1025.4
20210518162454 66 271 0.9 2.6 0.00 0.00 0.00 36 1025.4
20210518161949 65 180 0.9 2.6 0.00 0.00 0.00 36 1025.2
20210518161443 64 179 0.9 2.6 0.00 0.00 0.00 38 1025.2
20210518160937 64 111 0.0 1.7 0.00 0.00 0.00 40 1025.1
20210518160433 62 108 0.9 2.6 0.00 0.00 0.00 41 1025.1
20210518155931 62 108 0.9 2.6 0.00 0.00 0.00 42 1025.1
20210518155432 61 41 0.9 3.5 0.00 0.00 0.00 41 1025.4
20210518154933 61 52 0.9 3.5 0.00 0.00 0.00 43 1025.5
20210518154431 60 52 0.9 3.5 0.00 0.00 0.00 45 1025.5
20210518153930 60 63 0.9 2.6 0.00 0.00 0.00 46 1025.6
20210518153429 60 63 0.9 1.7 0.00 0.00 0.00 46 1025.7
20210518152930 60 61 0.9 2.6 0.00 0.00 0.00 47 1025.7
20210518152431 59 54 0.9 3.5 0.00 0.00 0.00 49 1025.7
20210518151928 59 71 0.0 3.5 0.00 0.00 0.00 51 1025.7
20210518151427 58 310 0.9 1.7 0.00 0.00 0.00 52 1025.7
20210518150929 58 309 0.9 2.6 0.00 0.00 0.00 53 1025.8
20210518150427 58 293 0.9 2.6 0.00 0.00 0.00 53 1025.8
20210518145929 58 301 0.9 2.6 0.00 0.00 0.00 54 1025.7
20210518145423 58 314 1.7 4.3 0.00 0.00 0.00 54 1025.5
20210518144923 58 293 2.6 6.1 0.00 0.00 0.00 54 1025.8
20210518144423 58 350 1.7 6.1 0.00 0.00 0.00 52 1025.9
20210518143925 58 293 0.9 3.5 0.00 0.00 0.00 52 1025.7
20210518143424 58 196 0.0 1.7 0.00 0.00 0.00 54 1025.4
20210518142923 57 127 0.0 2.6 0.00 0.00 0.00 53 1025.2
20210518142424 57 127 0.9 4.3 0.00 0.00 0.00 54 1024.9
20210518141924 57 150 0.9 4.3 0.00 0.00 0.00 54 1025.0
20210518141424 56 150 0.9 2.6 0.00 0.00 0.00 55 1025.1
20210518140923 56 260 0.0 1.7 0.00 0.00 0.00 57 1025.4
20210518140424 56 276 0.0 0.9 0.00 0.00 0.00 56 1025.5
20210518135925 55 276 0.9 2.6 0.00 0.00 0.00 56 1025.5
20210518135424 55 276 1.7 5.2 0.00 0.00 0.00 56 1025.5
20210518134923 55 276 1.7 5.2 0.00 0.00 0.00 56 1025.6
20210518134425 55 287 1.7 3.5 0.00 0.00 0.00 57 1025.5
20210518133921 55 322 1.7 3.5 0.00 0.00 0.00 56 1025.4
20210518133422 55 281 1.7 3.5 0.00 0.00 0.00 57 1025.5
20210518132921 55 266 0.9 4.3 0.00 0.00 0.00 58 1025.4
20210518132420 55 167 0.9 4.3 0.00 0.00 0.00 58 1024.8
20210518131914 54 335 0.9 1.7 0.00 0.00 0.00 58 1025.6
20210518131410 54 340 0.9 4.3 0.00 0.00 0.00 58 1025.4
20210518130904 54 336 1.7 4.3 0.00 0.00 0.00 58 1025.4
20210518130358 54 6 1.7 4.3 0.00 0.00 0.00 59 1025.4
20210518125852 54 316 1.7 4.3 0.00 0.00 0.00 59 1025.5
20210518125346 54 56 1.7 5.2 0.00 0.00 0.00 59 1025.2
20210518124840 54 313 2.6 5.2 0.00 0.00 0.00 59 1025.4
20210518124335 54 345 3.5 7.0 0.00 0.00 0.00 60 1025.2
20210518123828 54 306 2.6 7.0 0.00 0.00 0.00 60 1025.2
20210518123322 53 341 1.7 2.6 0.00 0.00 0.00 60 1024.7
20210518122815 53 96 1.7 3.5 0.00 0.00 0.00 61 1024.4
20210518122310 53 188 0.9 3.5 0.00 0.00 0.00 62 1024.5
20210518121804 53 205 0.0 1.7 0.00 0.00 0.00 61 1024.5
20210518121256 53 245 0.0 0.9 0.00 0.00 0.00 61 1024.7
20210518120750 53 264 0.0 0.9 0.00 0.00 0.00 61 1024.7
20210518120243 53 264 0.9 2.6 0.00 0.00 0.00 61 1024.7
20210518115738 53 264 0.9 2.6 0.00 0.00 0.00 60 1024.7
20210518115232 53 145 0.0 0.9 0.00 0.00 0.00 60 1024.7
20210518114726 53 145 0.0 1.7 0.00 0.00 0.00 60 1024.5
20210518114220 53 145 0.9 1.7 0.00 0.00 0.00 61 1024.5
20210518113715 53 145 0.0 0.9 0.00 0.00 0.00 61 1024.5
20210518113209 52 145 0.0 0.9 0.00 0.00 0.00 61 1024.3
20210518112702 52 145 0.0 0.9 0.00 0.00 0.00 61 1024.4
20210518112156 52 145 0.0 1.7 0.00 0.00 0.00 62 1024.3
20210518111650 52 145 0.9 2.6 0.00 0.00 0.00 62 1024.3
20210518111144 52 145 0.9 2.6 0.00 0.00 0.00 62 1024.2
20210518110638 52 146 0.0 1.7 0.00 0.00 0.00 62 1024.3
20210518110131 52 146 0.0 1.7 0.00 0.00 0.00 62 1024.4
20210518105626 52 146 0.0 1.7 0.00 0.00 0.00 62 1024.4
20210518105120 52 146 0.0 0.9 0.00 0.00 0.00 62 1024.5
20210518104614 52 146 0.9 2.6 0.00 0.00 0.00 62 1024.5
20210518104108 52 146 0.9 2.6 0.00 0.00 0.00 61 1024.7
20210518103602 52 146 1.7 2.6 0.00 0.00 0.00 61 1024.7
20210518103055 52 102 0.9 2.6 0.00 0.00 0.00 61 1024.7
20210518102549 52 63 0.0 1.7 0.00 0.00 0.00 62 1024.7
20210518102046 52 26 0.0 0.0 0.00 0.00 0.00 61 1024.8
20210518101538 52 26 0.0 1.7 0.00 0.00 0.00 61 1025.0
20210518101032 52 26 0.0 1.7 0.00 0.00 0.00 61 1025.0
20210518100526 52 355 0.0 1.7 0.00 0.00 0.00 61 1024.9
20210518100020 53 355 0.0 1.7 0.00 0.00 0.00 61 1024.9
20210518095514 52 355 0.9 1.7 0.00 0.00 0.00 61 1024.8
20210518095008 53 331 0.9 3.5 0.00 0.00 0.00 61 1024.8
20210518094501 52 331 1.7 4.3 0.00 0.00 0.00 60 1024.9
20210518093954 52 326 1.7 4.3 0.00 0.00 0.00 61 1025.0
20210518093450 52 110 0.9 2.6 0.00 0.00 0.00 62 1024.8
20210518092945 52 110 0.0 0.9 0.00 0.00 0.00 62 1024.7
20210518092438 52 110 0.0 0.0 0.00 0.00 0.00 61 1024.7
20210518091932 53 110 0.0 0.9 0.00 0.00 0.00 61 1024.7
20210518091425 53 110 0.0 0.9 0.00 0.00 0.00 61 1024.8
20210518090920 53 110 0.0 0.9 0.00 0.00 0.00 60 1024.8
20210518090414 53 110 0.0 0.0 0.00 0.00 0.00 59 1025.0
20210518085908 53 110 0.0 0.0 0.00 0.00 0.00 59 1025.0
20210518085401 53 110 0.0 0.9 0.00 0.00 0.00 59 1025.0
20210518084855 53 110 0.0 0.9 0.00 0.00 0.00 59 1025.1
20210518084350 54 110 0.0 0.9 0.00 0.00 0.00 59 1025.2
20210518083844 54 110 0.0 0.9 0.00 0.00 0.00 58 1025.2
20210518083339 54 110 0.0 1.7 0.00 0.00 0.00 58 1025.4
20210518082832 54 110 0.0 1.7 0.00 0.00 0.00 58 1025.5
20210518082327 54 110 0.9 1.7 0.00 0.00 0.00 58 1025.5
20210518081820 54 229 0.9 1.7 0.00 0.00 0.00 58 1025.6
20210518081315 54 229 0.0 0.9 0.00 0.00 0.00 58 1025.8
20210518080808 55 229 0.9 1.7 0.00 0.00 0.00 57 1025.7
20210518080301 55 229 0.9 1.7 0.00 0.00 0.00 58 1025.7
20210518075756 55 229 0.0 1.7 0.00 0.00 0.00 57 1025.7
20210518075251 55 229 0.0 1.7 0.00 0.00 0.00 57 1025.7
20210518074744 55 229 0.0 1.7 0.00 0.00 0.00 57 1025.8
20210518074238 55 229 0.0 0.9 0.00 0.00 0.00 56 1025.7
20210518073732 55 229 0.0 1.7 0.00 0.00 0.00 56 1025.9
20210518073226 55 229 0.0 1.7 0.00 0.00 0.00 56 1025.9
20210518072721 55 341 0.9 1.7 0.00 0.00 0.00 56 1025.8
20210518072214 55 335 0.9 3.5 0.00 0.00 0.00 56 1025.9
20210518071706 55 333 1.7 3.5 0.00 0.00 0.00 56 1026.1
20210518071202 55 334 0.9 4.3 0.00 0.00 0.00 56 1026.2
20210518070656 55 322 0.9 4.3 0.00 0.00 0.00 56 1026.2
20210518070149 55 322 1.7 4.3 0.00 0.00 0.00 56 1026.2
20210518065645 55 320 2.6 4.3 0.00 0.00 0.00 56 1026.1
20210518065139 55 322 2.6 4.3 0.00 0.00 0.00 56 1025.9
20210518064630 55 326 1.7 3.5 0.00 0.00 0.00 55 1026.1
20210518064126 55 321 1.7 3.5 0.00 0.00 0.00 55 1026.1
20210518063621 56 324 0.9 3.5 0.00 0.00 0.00 54 1026.2
20210518063118 56 285 0.0 1.7 0.00 0.00 0.00 54 1025.9
20210518062618 56 285 0.9 1.7 0.00 0.00 0.00 54 1026.3
20210518062116 56 285 0.9 2.6 0.00 0.00 0.00 53 1026.3
20210518061613 56 285 1.7 5.2 0.00 0.00 0.00 53 1026.2
20210518061110 56 285 1.7 5.2 0.00 0.00 0.00 53 1026.2
20210518060610 56 273 1.7 3.5 0.00 0.00 0.00 53 1026.1
20210518060110 56 283 1.7 4.3 0.00 0.00 0.00 52 1026.1
20210518055607 56 324 1.7 4.3 0.00 0.00 0.00 52 1026.4
20210518055108 56 328 0.9 3.5 0.00 0.00 0.00 52 1026.2
20210518054607 56 331 1.7 4.3 0.00 0.00 0.00 52 1026.1
20210518054109 56 331 2.6 5.2 0.00 0.00 0.00 52 1026.2
20210518053603 56 291 1.7 5.2 0.00 0.00 0.00 53 1026.1
20210518053105 56 289 0.9 4.3 0.00 0.00 0.00 54 1026.2
20210518052604 56 66 0.0 0.9 0.00 0.00 0.00 53 1025.8
20210518052103 56 66 0.0 0.9 0.00 0.00 0.00 53 1025.8
20210518051604 56 66 0.0 1.7 0.00 0.00 0.00 52 1025.7
20210518051104 56 66 0.0 1.7 0.00 0.00 0.00 52 1025.7
20210518050603 56 68 0.0 0.9 0.00 0.00 0.00 52 1025.8
20210518050105 57 68 0.0 0.0 0.00 0.00 0.00 51 1025.7
20210518045605 57 68 0.0 0.9 0.00 0.00 0.00 51 1025.7
20210518045103 57 68 0.0 0.9 0.00 0.00 0.00 51 1025.7
20210518044604 57 68 0.0 1.7 0.00 0.00 0.00 51 1025.7
20210518044103 57 68 0.0 1.7 0.00 0.00 0.00 50 1025.5
20210518043605 57 68 0.0 1.7 0.00 0.00 0.00 50 1025.5
20210518043103 58 68 0.0 1.7 0.00 0.00 0.00 50 1025.6
20210518042559 58 68 0.9 2.6 0.00 0.00 0.00 50 1025.8
20210518042101 58 68 0.9 5.2 0.00 0.00 0.00 50 1025.7
20210518041559 58 60 1.7 5.2 0.00 0.00 0.00 50 1025.6
20210518041059 58 13 0.9 2.6 0.00 0.00 0.00 50 1025.6
20210518040559 58 341 1.7 3.5 0.00 0.00 0.00 50 1025.5
20210518040100 58 4 1.7 4.3 0.00 0.00 0.00 49 1025.5
20210518035559 58 7 2.6 4.3 0.00 0.00 0.00 49 1025.5
20210518035059 58 13 2.6 4.3 0.00 0.00 0.00 48 1025.4
20210518034601 59 4 2.6 4.3 0.00 0.00 0.00 48 1025.4
20210518034054 59 322 3.5 9.6 0.00 0.00 0.00 47 1025.2
20210518033546 59 21 2.6 9.6 0.00 0.00 0.00 47 1025.1
20210518033042 59 319 2.6 7.0 0.00 0.00 0.00 46 1025.2
20210518032536 59 315 2.6 7.0 0.00 0.00 0.00 46 1025.2
20210518032028 59 329 2.6 4.3 0.00 0.00 0.00 46 1025.2
20210518031522 59 331 2.6 7.0 0.00 0.00 0.00 46 1025.1
20210518031018 60 331 2.6 7.0 0.00 0.00 0.00 46 1025.1
20210518030510 60 324 2.6 5.2 0.00 0.00 0.00 46 1025.1
20210518030004 60 314 2.6 5.2 0.00 0.00 0.00 45 1025.1
20210518025500 60 260 2.6 5.2 0.00 0.00 0.00 45 1025.1
20210518024952 60 291 1.7 4.3 0.00 0.00 0.00 45 1025.1
20210518024448 60 296 1.7 4.3 0.00 0.00 0.00 44 1025.0
20210518023941 61 305 1.7 4.3 0.00 0.00 0.00 44 1024.8
20210518023437 61 311 1.7 3.5 0.00 0.00 0.00 43 1024.7
20210518022930 61 331 1.7 5.2 0.00 0.00 0.00 42 1024.4
20210518022424 61 303 2.6 5.2 0.00 0.00 0.00 42 1024.3
20210518021918 61 299 2.6 4.3 0.00 0.00 0.00 42 1024.1
20210518021410 62 302 2.6 4.3 0.00 0.00 0.00 42 1023.8
20210518020906 62 318 3.5 7.8 0.00 0.00 0.00 40 1023.8
20210518020358 62 336 3.5 7.8 0.00 0.00 0.00 40 1023.5
20210518015852 62 322 2.6 5.2 0.00 0.00 0.00 40 1023.4
20210518015346 62 321 2.6 5.2 0.00 0.00 0.00 40 1023.4
20210518014840 62 10 3.5 7.0 0.00 0.00 0.00 40 1023.3
20210518014336 62 350 3.5 7.0 0.00 0.00 0.00 40 1023.3
20210518013830 62 335 4.3 8.7 0.00 0.00 0.00 40 1023.2
20210518013324 62 332 4.3 8.7 0.00 0.00 0.00 41 1023.0
20210518012819 63 328 4.3 8.7 0.00 0.00 0.00 41 1023.0
20210518012312 63 331 3.5 8.7 0.00 0.00 0.00 41 1023.0
20210518011805 62 350 3.5 7.8 0.00 0.00 0.00 40 1023.0
20210518011259 62 12 5.2 10.4 0.00 0.00 0.00 41 1022.7
20210518010752 62 10 6.1 11.3 0.00 0.00 0.00 42 1022.8
20210518010248 62 299 7.0 13.0 0.00 0.00 0.00 44 1022.8
20210518005742 63 350 6.1 13.0 0.00 0.00 0.00 43 1022.7
20210518005235 64 5 6.1 13.0 0.00 0.00 0.00 43 1022.8
20210518004729 64 337 5.2 13.0 0.00 0.00 0.00 41 1022.6
20210518004224 65 8 5.2 10.4 0.00 0.00 0.00 39 1022.5
20210518003716 66 25 6.1 11.3 0.00 0.00 0.00 38 1022.6
20210518003212 66 10 5.2 11.3 0.00 0.00 0.00 36 1022.3
20210518002704 67 273 5.2 9.6 0.00 0.00 0.00 34 1022.2
20210518002201 67 350 6.1 12.2 0.00 0.00 0.00 33 1022.3
20210518001657 67 331 6.1 12.2 0.00 0.00 0.00 32 1022.5
20210518001157 68 293 4.3 8.7 0.00 0.00 0.00 31 1022.6
20210518000657 68 320 4.3 7.8 0.00 0.00 0.00 29 1022.6
20210518000156 68 350 3.5 7.8 0.00 0.00 0.00 30 1022.6
20210517235655 68 7 4.3 8.7 0.00 0.00 0.00 31 1022.8
20210517235153 68 339 6.1 9.6 0.00 0.00 0.00 33 1022.7
20210517234654 68 355 5.2 9.6 0.00 0.00 0.00 32 1022.3
20210517234153 67 0 5.2 9.6 0.00 0.00 0.00 34 1022.0
20210517233652 67 22 7.0 13.0 0.00 0.00 0.00 35 1022.1
20210517233150 67 16 7.0 14.8 0.00 0.00 0.00 35 1021.9
20210517232651 67 25 7.8 15.6 0.00 0.00 0.00 34 1021.9
20210517232151 68 27 7.8 15.6 0.00 0.00 0.00 33 1021.6
20210517231652 68 13 7.8 13.9 0.00 0.00 0.00 32 1021.8
20210517231149 69 327 7.0 13.9 0.00 0.00 0.00 31 1022.0
20210517230649 69 0 6.1 13.9 0.00 0.00 0.00 30 1022.0
20210517230149 70 311 6.1 13.0 0.00 0.00 0.00 29 1021.8
20210517225648 70 15 5.2 12.2 0.00 0.00 0.00 28 1021.6
20210517225148 70 10 5.2 11.3 0.00 0.00 0.00 28 1021.5
20210517224642 70 331 5.2 11.3 0.00 0.00 0.00 28 1021.6
20210517224138 70 14 5.2 12.2 0.00 0.00 0.00 29 1021.6
20210517223630 70 12 6.1 12.2 0.00 0.00 0.00 28 1021.8
20210517223128 70 350 6.1 10.4 0.00 0.00 0.00 28 1021.9
20210517222628 70 13 6.1 10.4 0.00 0.00 0.00 28 1021.8
20210517222128 70 16 6.1 11.3 0.00 0.00 0.00 27 1021.9
20210517221626 71 13 6.1 12.2 0.00 0.00 0.00 28 1022.1
20210517221127 71 328 5.2 12.2 0.00 0.00 0.00 28 1022.0
20210517220627 71 12 5.2 11.3 0.00 0.00 0.00 29 1022.1
20210517220128 71 8 5.2 11.3 0.00 0.00 0.00 29 1022.1
20210517215627 71 5 6.1 10.4 0.00 0.00 0.00 29 1022.1
20210517215127 71 24 7.0 11.3 0.00 0.00 0.00 28 1022.0
20210517214626 72 337 7.0 12.2 0.00 0.00 0.00 28 1022.1
20210517214129 74 4 6.1 12.2 0.00 0.00 0.00 25 1022.0
20210517213623 77 339 5.2 9.6 0.00 0.00 0.00 24 1022.2
20210517213124 78 331 4.3 8.7 0.00 0.00 0.00 15 1022.2
20210517212623 78 288 5.2 12.2 0.00 0.00 0.00 14 1022.1
20210517212123 79 254 3.5 12.2 0.00 0.00 0.00 14 1022.0
20210517211623 79 258 2.6 8.7 0.00 0.00 0.00 14 1022.0
20210517211122 79 195 3.5 8.7 0.00 0.00 0.00 15 1022.0
20210517210622 79 130 3.5 8.7 0.00 0.00 0.00 13 1022.3
20210517210123 79 184 3.5 7.8 0.00 0.00 0.00 18 1022.3
20210517205622 79 185 3.5 11.3 0.00 0.00 0.00 18 1022.5
20210517205122 78 129 3.5 11.3 0.00 0.00 0.00 18 1022.6
20210517204622 78 167 3.5 9.6 0.00 0.00 0.00 18 1022.6
20210517204121 77 183 4.3 10.4 0.00 0.00 0.00 20 1022.7
20210517203620 77 123 5.2 12.2 0.00 0.00 0.00 20 1022.6
20210517203121 76 181 6.1 13.0 0.00 0.00 0.00 22 1022.7
20210517202620 75 135 6.1 14.8 0.00 0.00 0.00 22 1022.7
20210517202122 74 126 6.1 17.4 0.00 0.00 0.00 20 1022.8
20210517201620 74 93 7.0 17.4 0.00 0.00 0.00 18 1022.8
20210517201131 75 114 7.0 15.6 0.00 0.00 0.00 21 1022.9
20210517200616 75 142 8.7 18.2 0.00 0.00 0.00 21 1022.9
20210517200109 75 140 7.8 18.2 0.00 0.00 0.00 20 1023.0
20210517195604 76 118 6.1 15.6 0.00 0.00 0.00 21 1023.2
20210517195057 77 118 5.2 13.9 0.00 0.00 0.00 24 1022.8
20210517194552 77 151 5.2 13.9 0.00 0.00 0.00 23 1023.0
20210517194047 78 204 4.3 11.3 0.00 0.00 0.00 23 1022.9
20210517193541 78 198 4.3 10.4 0.00 0.00 0.00 24 1022.8
20210517193036 78 209 4.3 11.3 0.00 0.00 0.00 20 1022.8